Estevan,

8:04 AM CST on February 22, 2017 (GMT -0600)
Estevan

Weather History for CYEN - October, 2012

Change the Weather History Date:

Monday, October 22, 2012

  Actual Average Record
Temperature  
Mean Temperature 31 °F -  
Max Temperature 40 °F 40 °F 71 °F (1998)
Min Temperature 22 °F 20 °F 6 °F (1996)
Degree Days  
Heating Degree Days 34    
Moisture  
Dew Point 29 °F    
Average Humidity 80    
Maximum Humidity 100    
Minimum Humidity 64    
Precipitation  
Precipitation 0.43 in 0.02 in - ()
Sea Level Pressure  
Sea Level Pressure 30.10 in    
Wind  
Wind Speed 8 mph ()    
Max Wind Speed 16 mph    
Max Gust Speed 24 mph    
Visibility 12.4 miles    
Events Rain , Snow    
Averages and records for this station are not official NWS values.
T = Trace of Precipitation, MM = Missing Value Source: Averaged Metar Reports

Daily Weather History Graph

Daily Weather History Graph

Search for Another Location

Airport or City:

Trip Planner

Search our weather history database for the weather conditions in past years. The results will help you decide how hot, cold, wet, or windy it might be!

Date:

Astronomy

Oct. 22, 2012 Rise Set
Actual Time 7:24 AM CST 5:47 PM CST
Civil Twilight 6:51 AM CST 6:19 PM CST
Nautical Twilight 6:14 AM CST 6:56 PM CST
Astronomical Twilight 5:38 AM CST 7:33 PM CST
Moon 2:29 PM CST No Moon Set
Length of Visible Light 11h 27m
Length of Day
10h 22m
First Quarter, 57% of the Moon is Illuminated
Oct 22
First Quarter
Oct 29
Full
Nov 6
Last Quarter
Nov 13
New
Nov 20
First Quarter

Hourly Weather History & Observations

Time (CST) Temp. Windchill Dew Point Humidity Pressure Visibility Wind Dir Wind Speed Gust Speed Precip Events Conditions
12:00 AM 24 °F - 20 °F 80% 30.15 in 15 mi WNW 4.6 mph - -  
12:00 AM 24.8 °F 19.1 °F 21.2 °F 86% 30.15 in 15.0 mi WNW 4.6 mph - N/A   Clear
1:00 AM 26.6 °F 21.2 °F 21.2 °F 80% 30.15 in 15.0 mi WNW 4.6 mph - N/A   Partly Cloudy
2:00 AM 28.4 °F 21.2 °F 23.0 °F 80% 30.15 in 15.0 mi NW 6.9 mph - N/A   Scattered Clouds
3:00 AM 28.4 °F 21.2 °F 24.8 °F 86% 30.15 in 15.0 mi NNW 6.9 mph - N/A   Overcast
4:00 AM 30.2 °F 24.3 °F 26.6 °F 86% 30.15 in 15.0 mi NNW 5.8 mph - N/A   Overcast
5:00 AM 32.0 °F 25.6 °F 26.6 °F 80% 30.14 in 15.0 mi NNW 6.9 mph - N/A   Overcast
6:00 AM 32 °F - 26 °F 71% 30.15 in 15 mi NNW 9.2 mph - -   Overcast
6:00 AM 32.0 °F 24.2 °F 26.6 °F 80% 30.15 in 15.0 mi NNW 9.2 mph - N/A   Overcast
7:00 AM 32.0 °F 25.6 °F 26.6 °F 80% 30.15 in 15.0 mi NNW 6.9 mph - N/A   Overcast
8:00 AM 32.0 °F 28.7 °F 26.6 °F 80% 30.15 in 15.0 mi SE 3.5 mph - N/A   Overcast
9:00 AM 35.6 °F 32.8 °F 28.4 °F 75% 30.16 in 15.0 mi SE 3.5 mph - N/A   Overcast
10:00 AM 39.2 °F 35.0 °F 30.2 °F 70% 30.17 in 15.0 mi SE 5.8 mph - N/A   Overcast
10:31 AM - - - N/A% - 15.0 mi SE 6.9 mph - N/A Rain Light Rain
11:00 AM 41.0 °F 32.8 °F 32.0 °F 70% 30.17 in 15.0 mi ESE 16.1 mph 23.0 mph N/A Rain Light Rain
12:00 PM 38 °F - 35 °F 85% 30.16 in 4 mi ESE 15.0 mph - - Rain Light Rain
12:00 PM 37.4 °F 28.5 °F 35.6 °F 93% 30.16 in 4.0 mi ESE 15.0 mph 23.0 mph N/A Rain Light Rain
12:33 PM - - - N/A% - 4.0 mi ESE 11.5 mph 17.3 mph N/A Rain Light Rain
1:00 PM 37.4 °F 29.8 °F 33.8 °F 87% 30.14 in 5.0 mi East 11.5 mph 19.6 mph N/A Rain Light Rain
1:37 PM - - - N/A% - 15.0 mi East 11.5 mph 19.6 mph N/A   Overcast
2:00 PM 37.4 °F 29.3 °F 33.8 °F 87% 30.12 in 15.0 mi East 12.7 mph 19.6 mph N/A   Overcast
3:00 PM 37.4 °F 28.9 °F 32.0 °F 81% 30.09 in 15.0 mi East 13.8 mph - N/A   Overcast
4:00 PM 37.4 °F 29.8 °F 32.0 °F 81% 30.07 in 15.0 mi East 11.5 mph 17.3 mph N/A   Overcast
5:00 PM 37.4 °F 28.9 °F 32.0 °F 81% 30.04 in 15.0 mi East 13.8 mph 21.9 mph N/A   Overcast
6:00 PM 38 °F - 30 °F 64% 30.02 in 15 mi East 15.0 mph - -   Partly Cloudy
6:00 PM 37.4 °F 28.5 °F 30.2 °F 75% 30.02 in 15.0 mi East 15.0 mph - N/A   Overcast
7:00 PM 37.4 °F 29.3 °F 30.2 °F 75% 30.00 in 15.0 mi East 12.7 mph - N/A   Overcast
8:00 PM 39.2 °F 32.0 °F 30.2 °F 70% 30.01 in 15.0 mi East 11.5 mph - N/A   Overcast
9:00 PM 39.2 °F 31.6 °F 30.2 °F 70% 30.00 in 15.0 mi East 12.7 mph - N/A   Overcast
9:28 PM - - - N/A% - 13.0 mi ESE 15.0 mph 23.0 mph N/A Rain Light Rain
9:49 PM - - - N/A% - 1.0 mi East 16.1 mph 24.2 mph N/A   Unknown
10:00 PM 32.0 °F 21.2 °F 32.0 °F 100% 29.97 in 1.2 mi East 16.1 mph 23.0 mph N/A Snow Light Snow
11:00 PM 32.0 °F 23.0 °F 32.0 °F 100% 29.96 in 1.2 mi East 11.5 mph - N/A Snow Light Snow